When you browse on this site, cookies collect data to enhance your experience and personalize the content and advertising you see.
Visit our Privacy Policy to learn more. By continuing to use the site, you agree to this use of cookies and data.
  • In Lithuania
  • List of Countries
  • For 7 days
  • Water Temperature
  • Satellite Maps
  • Weather Map
  • Weather Widgets
  • user-avatar
    Login

    Hourly Weather Tatarbunary

    Today, 16 February, Saturday

    Time Temperature Precipitation Wind Pressure Humidity
    00:00 +1°C° 0 mm 3 mps 772 mmHg 79%
    01:00 0°C° 0 mm 3 mps 772 mmHg 82%
    02:00 0°C° 0 mm 3 mps 772 mmHg 84%
    03:00 0°C° 0 mm 3 mps 772 mmHg 86%
    04:00 -1°C° 0 mm 3 mps 771 mmHg 88%
    05:00 -1°C° 0 mm 3 mps 771 mmHg 90%
    06:00 -1°C° 0 mm 3 mps 771 mmHg 89%
    07:00 0°C° 0 mm 3 mps 771 mmHg 88%
    08:00 -1°C° 0 mm 4 mps 771 mmHg 87%
    09:00 +1°C° 0 mm 4 mps 771 mmHg 80%
    10:00 +4°C° 0 mm 4 mps 771 mmHg 73%
    11:00 +5°C° 0 mm 4 mps 771 mmHg 66%
    12:00 +6°C° 0 mm 4 mps 771 mmHg 64%
    13:00 +7°C° 0 mm 4 mps 771 mmHg 62%
    14:00 +7°C° 0 mm 4 mps 771 mmHg 60%
    15:00 +7°C° 0 mm 4 mps 770 mmHg 62%
    16:00 +7°C° 0 mm 4 mps 770 mmHg 64%
    17:00 +6°C° 0 mm 4 mps 770 mmHg 66%
    18:00 +7°C° 0 mm 3 mps 770 mmHg 71%
    19:00 +5°C° 0 mm 3 mps 770 mmHg 75%
    20:00 +5°C° 0 mm 2 mps 771 mmHg 79%
    21:00 +5°C° 0 mm 2 mps 771 mmHg 81%
    22:00 +4°C° 0 mm 2 mps 770 mmHg 84%
    23:00 +4°C° 0 mm 2 mps 770 mmHg 86%

    Tomorrow, 17 February, Sunday

    Time Temperature Precipitation Wind Pressure Humidity
    00:00 +4°C° 0 mm 2 mps 770 mmHg 88%
    01:00 +3°C° 0 mm 2 mps 770 mmHg 89%
    02:00 +3°C° 0 mm 2 mps 770 mmHg 90%
    03:00 +3°C° 0 mm 2 mps 770 mmHg 91%
    04:00 +3°C° 0 mm 2 mps 769 mmHg 91%
    05:00 +2°C° 0 mm 2 mps 769 mmHg 91%
    06:00 +3°C° 0 mm 2 mps 769 mmHg 89%
    07:00 +3°C° 0 mm 2 mps 769 mmHg 88%
    08:00 +2°C° 0 mm 3 mps 769 mmHg 86%
    09:00 +4°C° 0 mm 3 mps 769 mmHg 77%
    10:00 +7°C° 0 mm 3 mps 769 mmHg 67%
    11:00 +9°C° 0 mm 3 mps 769 mmHg 58%
    12:00 +10°C° 0 mm 4 mps 768 mmHg 53%
    13:00 +12°C° 0 mm 4 mps 768 mmHg 48%
    14:00 +13°C° 0 mm 4 mps 768 mmHg 43%
    15:00 +13°C° 0 mm 4 mps 767 mmHg 44%
    16:00 +12°C° 0 mm 4 mps 767 mmHg 45%
    17:00 +12°C° 0 mm 3 mps 766 mmHg 46%
    18:00 +11°C° 0 mm 3 mps 766 mmHg 50%
    19:00 +9°C° 0 mm 3 mps 767 mmHg 54%
    20:00 +8°C° 0 mm 3 mps 767 mmHg 57%
    21:00 +8°C° 0 mm 3 mps 767 mmHg 60%
    22:00 +6°C° 0 mm 4 mps 767 mmHg 62%
    23:00 +6°C° 0 mm 4 mps 767 mmHg 64%

    Day after tomorrow, 18 February, Monday

    Time Temperature Precipitation Wind Pressure Humidity
    00:00 +6°C° 0 mm 4 mps 767 mmHg 66%
    01:00 +5°C° 0 mm 4 mps 767 mmHg 68%
    02:00 +5°C° 0 mm 4 mps 767 mmHg 71%
    03:00 +5°C° 0 mm 4 mps 767 mmHg 73%
    04:00 +4°C° 0 mm 4 mps 767 mmHg 76%
    05:00 +4°C° 0 mm 3 mps 767 mmHg 78%
    06:00 +4°C° 0 mm 3 mps 767 mmHg 80%
    07:00 +3°C° 0 mm 3 mps 767 mmHg 81%
    08:00 +3°C° 0 mm 3 mps 767 mmHg 82%
    09:00 +5°C° 0 mm 3 mps 768 mmHg 75%
    10:00 +7°C° 0 mm 4 mps 768 mmHg 68%
    11:00 +8°C° 0 mm 4 mps 768 mmHg 60%
    12:00 +10°C° 0 mm 4 mps 768 mmHg 58%
    13:00 +10°C° 0 mm 4 mps 768 mmHg 56%
    14:00 +11°C° 0 mm 4 mps 768 mmHg 54%
    15:00 +10°C° 0 mm 4 mps 767 mmHg 56%
    16:00 +10°C° 0 mm 4 mps 767 mmHg 58%
    17:00 +8°C° 0 mm 4 mps 767 mmHg 60%
    18:00 +9°C° 0 mm 3 mps 768 mmHg 64%
    19:00 +8°C° 0 mm 3 mps 768 mmHg 67%
    20:00 +7°C° 0 mm 2 mps 769 mmHg 70%
    21:00 +7°C° 0 mm 2 mps 769 mmHg 73%
    22:00 +6°C° 0 mm 2 mps 769 mmHg 75%
    23:00 +5°C° 0 mm 2 mps 769 mmHg 77%

    19 February, Tuesday

    Time Temperature Precipitation Wind Pressure Humidity
    00:00 +5°C° 0 mm 2 mps 770 mmHg 78%
    01:00 +4°C° 0 mm 2 mps 770 mmHg 79%
    02:00 +4°C° 0 mm 2 mps 770 mmHg 80%
    03:00 +4°C° 0 mm 2 mps 770 mmHg 80%
    04:00 +3°C° 0 mm 2 mps 770 mmHg 80%
    05:00 +3°C° 0 mm 2 mps 770 mmHg 80%
    06:00 +3°C° 0 mm 2 mps 770 mmHg 78%
    07:00 +3°C° 0 mm 2 mps 770 mmHg 76%
    08:00 +3°C° 0 mm 2 mps 771 mmHg 74%
    09:00 +4°C° 0 mm 3 mps 771 mmHg 68%
    10:00 +5°C° 0 mm 3 mps 771 mmHg 62%
    11:00 +7°C° 0 mm 3 mps 771 mmHg 56%
    12:00 +8°C° 0 mm 3 mps 770 mmHg 54%
    13:00 +8°C° 0 mm 3 mps 770 mmHg 53%
    14:00 +9°C° 0 mm 3 mps 770 mmHg 51%
    15:00 +7°C° 0 mm 4 mps 769 mmHg 54%
    16:00 +7°C° 0 mm 4 mps 769 mmHg 58%
    17:00 +6°C° 0 mm 4 mps 769 mmHg 61%
    18:00 +5°C° 0 mm 4 mps 769 mmHg 66%
    19:00 +5°C° 0 mm 4 mps 769 mmHg 71%
    20:00 +4°C° 0 mm 4 mps 769 mmHg 75%
    21:00 +4°C° 0 mm 4 mps 769 mmHg 78%
    22:00 +4°C° 0 mm 4 mps 768 mmHg 80%
    23:00 +4°C° 0 mm 4 mps 768 mmHg 83%

    20 February, Wednesday

    Time Temperature Precipitation Wind Pressure Humidity
    00:00 +4°C° 0 mm 4 mps 768 mmHg 84%
    01:00 +4°C° 0 mm 4 mps 768 mmHg 85%
    02:00 +5°C° 0 mm 4 mps 767 mmHg 85%
    03:00 +4°C° 0 mm 4 mps 767 mmHg 88%
    04:00 +4°C° 0 mm 4 mps 767 mmHg 90%
    05:00 +4°C° 0 mm 4 mps 766 mmHg 92%
    06:00 +4°C° 0 mm 4 mps 766 mmHg 92%
    07:00 +4°C° 0 mm 4 mps 766 mmHg 93%
    08:00 +4°C° 0 mm 4 mps 766 mmHg 93%
    09:00 +6°C° 0 mm 4 mps 766 mmHg 83%
    10:00 +8°C° 0 mm 4 mps 766 mmHg 74%
    11:00 +11°C° 0 mm 4 mps 766 mmHg 64%
    12:00 +12°C° 0 mm 4 mps 766 mmHg 58%
    13:00 +13°C° 0 mm 3 mps 766 mmHg 53%
    14:00 +13°C° 0 mm 3 mps 766 mmHg 47%
    15:00 +13°C° 0 mm 3 mps 766 mmHg 47%
    16:00 +14°C° 0 mm 2 mps 766 mmHg 48%
    17:00 +13°C° 0 mm 2 mps 766 mmHg 48%
    18:00 +12°C° 0 mm 2 mps 766 mmHg 54%
    19:00 +10°C° 0 mm 3 mps 766 mmHg 61%
    20:00 +8°C° 0 mm 3 mps 766 mmHg 67%
    21:00 +8°C° 0 mm 3 mps 767 mmHg 69%
    22:00 +7°C° 0 mm 2 mps 767 mmHg 72%
    23:00 +7°C° 0 mm 2 mps 767 mmHg 74%

    21 February, Thursday

    Time Temperature Precipitation Wind Pressure Humidity
    00:00 +6°C° 0 mm 2 mps 767 mmHg 75%
    01:00 +6°C° 0 mm 2 mps 767 mmHg 76%
    02:00 +6°C° 0 mm 2 mps 767 mmHg 77%
    03:00 +6°C° 0 mm 2 mps 767 mmHg 78%
    04:00 +4°C° 0 mm 3 mps 767 mmHg 79%
    05:00 +4°C° 0 mm 3 mps 767 mmHg 80%
    06:00 +4°C° 0 mm 3 mps 768 mmHg 81%
    07:00 +5°C° 0 mm 2 mps 768 mmHg 81%
    08:00 +5°C° 0 mm 2 mps 768 mmHg 82%
    09:00 +6°C° 0 mm 2 mps 768 mmHg 74%
    10:00 +8°C° 0 mm 2 mps 769 mmHg 66%
    11:00 +9°C° 0 mm 2 mps 769 mmHg 59%
    12:00 +10°C° 0 mm 3 mps 768 mmHg 55%
    13:00 +11°C° 0 mm 3 mps 768 mmHg 51%
    14:00 +12°C° 0 mm 4 mps 768 mmHg 46%
    15:00 +12°C° 0 mm 3 mps 768 mmHg 47%
    16:00 +11°C° 0 mm 3 mps 767 mmHg 48%
    17:00 +11°C° 0 mm 3 mps 767 mmHg 49%
    18:00 +12°C° 0 mm 2 mps 767 mmHg 52%
    19:00 +10°C° 0 mm 2 mps 767 mmHg 55%
    20:00 +10°C° 0 mm 1 mps 768 mmHg 58%
    21:00 +9°C° 0 mm 2 mps 768 mmHg 59%
    22:00 +9°C° 0 mm 2 mps 768 mmHg 60%
    23:00 +8°C° 0 mm 2 mps 768 mmHg 61%
    Show more